Погода в Сагаси-Дейбуке

Россия / Республика Дагестан     42°30′36″N   47°50′36″E
темп.,
°C
ветер,
м/с
пор.,
м/с
влажн.,
%
обл.,
%
осадки,
мм/ч
давл.,
гПа
погр.,
м
26 июня, вс
вс2600:00+20ссз1175100 0.0 100712
03:00+20з1278100 0.1 100820
06:00+22ю236687 0.1 1008129
09:00+25всв325824 0.1 1006801
12:00+26всв425680 0.0 1006842
15:00+27ссв3349100 0.0 1004911
18:00+26с345057 0.0 1004600
21:00+23зсз3367100 0.5 100647
27 июня, пн
пн2700:00+22з3365100 0.4 100628
03:00+21з33670 0.5 100628
06:00+23зсз24620 0.0 1007254
09:00+28с55450 0.0 10071045
12:00+31ссз98390 0.0 10061347
15:00+30ссз910410 0.0 10061413
18:00+28сз9115619 0.0 10061013
21:00+24сз71263100 0.0 1007401
28 июня, вт
вт2800:00+23сз71264100 0.0 1007429
03:00+22сз8156913 0.0 1007550
06:00+23сз914620 0.0 1007798
09:00+26ссз1214440 0.0 1007981
12:00+28ссз1113390 0.0 10081378
15:00+25с1013540 0.0 10091053
18:00+23ссз610540 0.0 1011744
21:00+21зсз46500 0.0 1013101
29 июня, ср
ср2900:00+20з43462 0.0 101339
03:00+20з33490 0.0 101224
06:00+23з22460 0.0 1013102
09:00+26ссв33300 0.0 1013983
12:00+28ссв43300 0.0 10131230
15:00+26св53450 0.0 10131040
18:00+22св32746 0.0 1014559
21:00+18ссз119699 0.1 101551
30 июня, чт
чт3000:00+18всв1192100 0.1 1015105
03:00+18св119098 0.1 1015213
06:00+18в118792 0.1 1015286
09:00+21всв326769 0.1 1015817
12:00+23всв435340 0.0 10141050
15:00+22всв424761 0.1 10141073
18:00+20св215057 0.0 1015587
21:00+18ссз116115 0.0 101629